Showing default

SOLIDARIDAD 1, 22911

Orbit data source: Space-Track

SOLIDARIDAD 1, 22911 is a payload satellite owned by Telmex (MX) in GEO that was launched on Sat, 20 Nov 1993 UTC via an ARIANE 44LP launch vehicle from the French Guiana (FRGUI). Payload-class satellites include a variety of spacecraft equipped with specific instruments for various scientific and technological missions. These include communications satellites like Starlink; space stations such as the ISS; scientific satellites like the Hubble; Earth observation satellites from companies like Planet Labs, Umbra, and HawkEye 360; GPS; miniature CubeSats for education and research; and military/defense satellites.

Loading next visibility...
Identifier
22911, 1993-073A
Orbit
GEO
Last TLE update
7 hours ago
Origin
Manufacturer
Hughes
Mission
Non-operational Commercial Communications
Bus & Motor
HS-601, R-4D-11
Mass
2,776 kg wet, 1,291 kg dry
Launch date (UTC)
1993-11-20 (32 years ago)
Launch vehicle
ARIANE 44LP
Launch site
French Guiana (FRGUI)
Object type
Payload
Rocket body
Debris
Shape & HBR
Hex Poly + 2 Pan, 20.98 m
Radar Cross Section
24.763 m², Large (>1 m²)

Expand to show TLE details & history

TLE from 7 hours ago
0 SOLIDARIDAD 1
1 22911U 93073A   25183.54507519 -.00000092  00000-0  00000-0 0  9994
2 22911  14.2745   5.0067 0005707 212.3805 150.9163  1.00269183114368
Epoch: 2025-07-02T13:04Z
TLE epoch observation values (Epoch: 2025-07-02T13:04:54.496Z)
Latitude
0.81936°
Longitude
-108.81711°
Altitude
35,807.72 km
Speed
3.073 km/s
True Right ascension
00h 32m 56s
True Declination
0° 49' 07"
Sunlit
Object was in daylight at epoch
Visualization orbit readout
Latitude
13.57477°
Longitude
-3.41319°
Altitude
35,792.263 km
Speed
3.074 km/s
Apparent Right ascension
07h 32m 50s
Apparent Declination
9° 09' 13"
Sunlit
Object is in daylight
Visualization observer readout
Local Sidereal Time
07:47:09
Azimuth
186.887° SSW
Elevation
59.072°
Doppler factor
1
Orbital elements
Apogee altitude
35,812.364 km
Perigee altitude
35,764.235 km
Semi-major axis
42,166.437 km
Eccentricity
0.00057
Inclination
14.2745°
RAAN
5.0067°
Arg. of periapsis
212.3805°
True anomaly
Unknown
Mean anomaly
150.9163°
Eccentric anomaly
Unknown
Mean motion
0.25066 °/min
Orbital period
1,436.18 mins
BSTAR
0
Loading historical data...
22911 neighbors
Loading maneuver chart data...
Loading SW <> Apogee altitude chart data...
Loading historical data...
Loading historical data...
Loading historical data...
Loading historical data...
Loading historical data...
Loading historical data...
Loading historical data...

SOLIDARIDAD 1 Visibility forecast

Observer location: undefined°, undefined°

Span
Click to sort rows by Start time (UTC) header in descending order
Start Az.
Max El. time (UTC)
Max El. Az.
Max El.
End time (UTC)
End Az.
1440 mins2025-07-02 20:03:11.399Z186.884° SSW2025-07-03 18:53:11.399Z188.139° SSW40.841°2025-07-03 20:03:11.399Z186.845° SSW
|